Regional Weather Roundup
Issued by NWS

Home | Current Version | Previous Version | Text Only | Print | Product List | Glossary Off
Versions: 1 2 3 4 5 6 7 8 9 10 11 12 13 14 15 16 17 18 19 20 21 22 23 24 25 26 27 28 29 30 31 32 33 34 35 36 37 38 39 40 41 42 43 44 45 46 47 48 49 50

000
ASUS43 KLOT 060621
RWRIL

ILLINOIS REGIONAL WEATHER ROUNDUP
NATIONAL WEATHER SERVICE CHICAGO/ROMEOVILLE IL
100 AM CDT WED MAY 06 2015

NOTE: "FAIR" INDICATES FEW OR NO CLOUDS BELOW 12,000 FEET WITH NO
SIGNIFICANT WEATHER AND/OR OBSTRUCTIONS TO VISIBILITY.

* THESE STATIONS ARE NOT UNDER NWS QUALITY CONTROL. THEY ALSO MAY NOT
  REPORT WEATHER SUCH AS PRECIPITATION OR FOG.

ILZ001-002-007-009-015-016-024-060700-
NORTHWEST ILLINOIS

CITY           SKY/WX    TMP DP  RH WIND       PRES   REMARKS
MOLINE         CLOUDY    58  54  86 E12       30.15F FOG
6HR MIN TEMP:  58; 6HR MAX TEMP:  67;

STERLING*      CLOUDY    54  50  87 E12       30.18S VSB 1
SAVANNA*       CLOUDY    54  52  93 E5        30.19S FOG
$$

ILZ003-004-008-010-011-017-018-060700-
NORTH CENTRAL ILLINOIS

CITY           SKY/WX    TMP DP  RH WIND       PRES   REMARKS
ROCKFORD       CLOUDY    52  49  89 E6        30.22S FOG
6HR MIN TEMP:  51; 6HR MAX TEMP:  54;

FREEPORT*      FOG       50  50  98 E9        30.21F VSB 1
ROCHELLE*      FOG       52  52 100 NE6       30.21R VSB 3/4
DE KALB*       LGT RAIN  50  49  97 NE8       30.20S VSB 1/2
PERU*          FOG       56  55  97 E7        30.18S VSB 3/4
$$

ILZ005-006-012>014-019>023-060700-
NORTHEAST ILLINOIS

CITY           SKY/WX    TMP DP  RH WIND       PRES   REMARKS
CHICAGO-OHARE  CLOUDY    47  46  97 NE8       30.21S FOG
6HR MIN TEMP:  47; 6HR MAX TEMP:  50;

CHICAGO-MIDWAY CLOUDY    52  49  89 NE6       30.20S FOG
6HR MIN TEMP:  51; 6HR MAX TEMP:  55;

AURORA         FOG       52  50  93 E9        30.19S VSB 1
6HR MIN TEMP:  52; 6HR MAX TEMP:  56;

LANSING*       FOG       49  47  95 N3        30.20F VSB 1/2
JOLIET*        CLOUDY    54  53  95 E5        30.19S FOG
WAUKEGAN       CLOUDY    46  42  86 NE5       30.22S
6HR MIN TEMP:  45; 6HR MAX TEMP:  46;

DUPAGE AIRPORT FOG       49  48  97 NE9       30.20R VSB 1/2
6HR MIN TEMP:  49; 6HR MAX TEMP:  52;

KANKAKEE*      CLOUDY    59  58  97 NE6       30.18F FOG
WHEELING       CLOUDY    46  44  93 NE7       30.23S FOG
6HR MIN TEMP:  46; 6HR MAX TEMP:  48;

MORRIS*        PTCLDY    54  52  94 NE3       30.15F FOG
ROMEOVILLE*    CLOUDY    51  51  99 E7        30.19S FOG
NORTHERLY ISL    N/A     47  45  93 MISG        N/A
$$

LMZ740>746-060700-
SOUTHERN LAKE MICHIGAN

STATION/POSITION SKY/WX   TEMP    WIND        PRES    VSBY  WAVE
                          AIR SEA DIR/SP/G                  HT/PER
                          (F)     (DEG/KT/KT) (MB)    (MI)  (FT/S)
HARRISON CRIB              44      20/  7/  8   N/A
BURNHAM HARBOR             47     360/  6/ 10   N/A
CALUMET HARBOR             45     340/  5/  7   N/A
BURNS HARBOR               50     250/  2/  4 1023.4R
MICHIGAN CITY              55      90/  7/  9   N/A
MICHIGAN CITY 6N           53 50  100/  4/  6   N/A           1/ 3
ST. JOSEPH                 53 49  160/  4/  6   N/A           1
$$

ILZ025>027-034>036-040-047-049-050-058-095>099-060700-
WEST-CENTRAL ILLINOIS

CITY           SKY/WX    TMP DP  RH WIND       PRES   REMARKS
QUINCY         MOCLDY    70  56  61 S7        30.11S
GALESBURG*     MOCLDY    61  60  96 E7        30.14S FOG
MACOMB*        CLOUDY    65  64  98 E3        30.15S FOG
JACKSONVILLE*  PTCLDY    72  56  58 S6        30.13S
PITTSFIELD*    MOCLDY    68  56  67 SE5       30.13S
$$

ILZ028>032-037-038-041>044-048-051>054-059>061-060700-
CENTRAL ILLINOIS

CITY           SKY/WX    TMP DP  RH WIND       PRES   REMARKS
PONTIAC        CLEAR     58  58  99 CALM      30.17F FOG
BLOOMINGTON    FOG       60  60 100 E6        30.18R VSB 1
DECATUR        CLEAR     65  55  70 S5        30.15F
PEORIA         PTCLDY    63  60  90 E8        30.15R FOG
6HR MIN TEMP:  63; 6HR MAX TEMP:  76;

LACON*         CLEAR     56  55  94 CALM      30.16S FOG
LINCOLN*       CLEAR     64  61  91 CALM      30.14S FOG
SPRINGFIELD    PTCLDY    69  56  62 S8        30.14S
6HR MIN TEMP:  66; 6HR MAX TEMP:  82;

TAYLORVILLE    CLEAR     64  55  72 S8        30.15S
$$

ILZ033-039-045-046-055>057-062-063-060700-
EAST-CENTRAL ILLINOIS

CITY           SKY/WX    TMP DP  RH WIND       PRES   REMARKS
CHAMPAIGN      PTCLDY    62  58  86 E6        30.17S
DANVILLE*      PTCLDY    61  59  92 CALM      30.15S
RANTOUL*       FAIR      63  61  93 CALM      30.17S FOG
MATTOON        CLOUDY    67  56  67 S7        30.16S
PARIS*         CLEAR     64  55  72 S5        30.18S
$$

ILZ079-100>102-060700-
SOUTHWEST ILLINOIS

CITY           SKY/WX    TMP DP  RH WIND       PRES   REMARKS
ALTON          CLEAR     63  61  92 CALM      30.15S
BELLEVILLE     CLEAR     64  61  92 CALM      30.14S
CAHOKIA*       MOCLDY    67  58  72 S3        30.13F
SPARTA*        CLOUDY    64  60  86 SE5       30.16S
$$

ILZ064>066-069>071-074>076-080>082-084>086-088>090-092>094-060700-
SOUTH-CENTRAL ILLINOIS

CITY           SKY/WX    TMP DP  RH WIND       PRES   REMARKS
CARBONDALE     CLEAR     64  57  78 SE5       30.16S
6HR MIN TEMP:  64; 6HR MAX TEMP:  75;

CAIRO*         CLEAR     60  56  85 CALM      30.17S
EFFINGHAM*     PTCLDY    62  55  76 SE3       30.18F
MARION         CLOUDY    68  57  68 CALM      30.17F
MT. VERNON     CLEAR    N/A N/A N/A CALM      30.17S
CENTRALIA*     PTCLDY    67  56  67 SE9       30.16S
SALEM*         CLEAR     70  58  65 SE5       30.16F
METROPOLIS*    CLEAR     60  60  99 CALM      30.17S
$$

ILZ067-068-072-073-078-083-087-091-060700-
SOUTHEAST ILLINOIS

CITY           SKY/WX    TMP DP  RH WIND       PRES   REMARKS
LAWRENCEVILLE  CLEAR     61  54  77 S3        30.18S
FLORA*         CLEAR     64  55  72 CALM      30.18S
FAIRFIELD*     CLEAR     63  59  87 CALM      30.16F
HARRISBURG*    CLEAR     62  56  81 CALM      30.19S
ROBINSON*      CLEAR     62  54  73 CALM      30.18S
CARMI*         CLEAR     60  52  73 CALM      30.18S
$$

ABBREVIATIONS USED IN REMARKS
   TC - TEMPERATURE IN CELSIUS
  WCI - WIND CHILL INDEX
   HX - HEAT INDEX
  VSB - VISIBILITY
$$




USA.gov is the U.S. government's official web portal to all federal, state and local government web resources and services.